DECAYED

STARLINK-31925, 59840 (Decayed)

Orbit data source: Space-Track

STARLINK-31925, 59840 was a payload satellite owned by SpaceX/Seattle (US) in LEO that was launched on Thu, 23 May 2024 UTC via an FALCON 9 launch vehicle from the Air Force Eastern Test Range (AFETR). Payload-class satellites include a variety of spacecraft equipped with specific instruments for various scientific and technological missions. These include communications satellites like Starlink; space stations such as the ISS; scientific satellites like the Hubble; Earth observation satellites from companies like Planet Labs, Umbra, and HawkEye 360; GPS; miniature CubeSats for education and research; and military/defense satellites.

Not visible in the next 10 days
Identifier
59840, 2024-097F
Orbit
Decayed
Country
Flag of USUS
Related business
Manufacturer
SpaceX/Seattle
Mission
Decayed Commercial Communications
Bus & Motor
STARLINK V2M, Unknown motor
Mass
730 kg wet, ~700 kg dry
Launch date (UTC)
2024-05-23 (2 years ago)
Launch vehicle
FALCON 9
Launch site
Air Force Eastern Test Range (AFETR)
Object type
Payload
Rocket body
Debris
Shape & HBR
Box + 2 Pan, 17.7 m
Radar Cross Section
33.884 m², Large (>1 m²)

Expand to show TLE details & history
Last TLE update: 5 months ago

TLE from 5 months ago
0 STARLINK-31925
1 59840U 24097F   26012.86949949  .04961784  10692+0  58249-2 0  9993
2 59840  42.9768 196.6919 0015209 290.8921  69.0334 16.15085290 93759
Epoch: 2026-01-12T20:52Z
TLE epoch observation values (Epoch: 2026-01-12T20:52:04.755Z)
Latitude
-0.00005°
Longitude
131.31204°
Altitude
229.11 km
Speed
7.773 km/s
True Right ascension
13h 06m 46s
True Declination
0° 00' 00"
Sunlit
Object was in daylight at epoch
Visualization orbit readout
Latitude
Unknown
Longitude
Unknown
Altitude
Unknown
Speed
Unknown
Apparent Right ascension
Unknown
Apparent Declination
Unknown
Sunlit
N/A
Visualization observer readout
Local Sidereal Time
23:09:15
Azimuth
Unknown
Elevation
Unknown
Doppler factor
Unknown
Orbital elements
Apogee altitude
245.01 km
Perigee altitude
224.894 km
Semi-major axis
6,613.089 km
Eccentricity
0.00152
Inclination
42.9768°
RAAN
196.6919°
Arg. of periapsis
290.8921°
True anomaly
69.19625°
Mean anomaly
69.0334°
Eccentric anomaly
69.11482°
Mean motion
4.03586 °/min
Orbital period
89.2 mins
BSTAR
0.0058249
Loading maneuver chart data...
Computing Atmospheric mass density...
Loading historical data...
Loading historical data...
Loading historical data...
Loading historical data...
Loading historical data...
Loading historical data...
Loading historical data...

Documentation

Showing up to 5 results
|